When you browse on this site, cookies collect data to enhance your experience and personalize the content and advertising you see.
Visit our Privacy Policy to learn more. By continuing to use the site, you agree to this use of cookies and data.
  • In Slovakia
  • List of Countries
  • For 7 days
  • Water Temperature
  • Satellite Maps
  • Weather Map
  • Weather Widgets
  • user-avatar
    Login

    Hourly Weather Osowiec

    Today, 19 December, Wednesday

    Time Temperature Precipitation Wind Pressure Humidity
    00:00 -4°C° 0 mm 2 mps 739 mmHg 89%
    01:00 -4°C° 0 mm 2 mps 738 mmHg 90%
    02:00 -5°C° 0 mm 2 mps 738 mmHg 89%
    03:00 -5°C° 0 mm 2 mps 738 mmHg 89%
    04:00 -5°C° 0 mm 2 mps 738 mmHg 89%
    05:00 -5°C° 0 mm 2 mps 738 mmHg 88%
    06:00 -5°C° 0 mm 2 mps 738 mmHg 87%
    07:00 -6°C° 0 mm 2 mps 737 mmHg 88%
    08:00 -5°C° 0 mm 2 mps 737 mmHg 85%
    09:00 -5°C° 0 mm 2 mps 737 mmHg 82%
    10:00 -4°C° 0 mm 2 mps 737 mmHg 79%
    11:00 -3°C° 0 mm 2 mps 737 mmHg 78%
    12:00 -2°C° 0 mm 2 mps 736 mmHg 77%
    13:00 -1°C° 0 mm 2 mps 736 mmHg 76%
    14:00 -2°C° 0 mm 2 mps 736 mmHg 79%
    15:00 -3°C° 0 mm 2 mps 735 mmHg 82%
    16:00 -4°C° 0 mm 2 mps 735 mmHg 85%
    17:00 -4°C° 0 mm 2 mps 735 mmHg 86%
    18:00 -5°C° 0 mm 2 mps 735 mmHg 86%
    19:00 -5°C° 0 mm 2 mps 735 mmHg 86%
    20:00 -3°C° 0 mm 1 mps 735 mmHg 86%
    21:00 -3°C° 0 mm 1 mps 734 mmHg 85%
    22:00 -3°C° 0 mm 1 mps 734 mmHg 84%
    23:00 -3°C° 0 mm 1 mps 734 mmHg 83%

    Tomorrow, 20 December, Thursday

    Time Temperature Precipitation Wind Pressure Humidity
    00:00 -2°C° 0 mm 1 mps 734 mmHg 82%
    01:00 -2°C° 0 mm 1 mps 734 mmHg 81%
    02:00 -2°C° 0 mm 1 mps 734 mmHg 80%
    03:00 -2°C° 0 mm 1 mps 733 mmHg 79%
    04:00 -2°C° 0 mm 1 mps 733 mmHg 78%
    05:00 -2°C° 0 mm 1 mps 733 mmHg 78%
    06:00 -2°C° 0 mm 1 mps 733 mmHg 77%
    07:00 -2°C° 0 mm 1 mps 733 mmHg 77%
    08:00 -4°C° 0 mm 2 mps 733 mmHg 77%
    09:00 -3°C° 0 mm 2 mps 733 mmHg 76%
    10:00 -3°C° 0 mm 2 mps 733 mmHg 76%
    11:00 -2°C° 0 mm 3 mps 733 mmHg 76%
    12:00 -2°C° 0 mm 3 mps 733 mmHg 76%
    13:00 -2°C° 0 mm 3 mps 733 mmHg 76%
    14:00 -2°C° 0 mm 3 mps 733 mmHg 78%
    15:00 -2°C° 0 mm 3 mps 733 mmHg 81%
    16:00 -4°C° 0 mm 3 mps 733 mmHg 83%
    17:00 -4°C° 0.2 mm 3 mps 733 mmHg 85%
    18:00 -2°C° 0.2 mm 3 mps 733 mmHg 86%
    19:00 -2°C° 0.2 mm 3 mps 733 mmHg 88%
    20:00 -3°C° 0.1 mm 4 mps 733 mmHg 88%
    21:00 -3°C° 0.1 mm 4 mps 733 mmHg 87%
    22:00 -3°C° 0.1 mm 4 mps 733 mmHg 87%
    23:00 -3°C° 0 mm 4 mps 733 mmHg 87%

    Day after tomorrow, 21 December, Friday

    Time Temperature Precipitation Wind Pressure Humidity
    00:00 -3°C° 0 mm 4 mps 733 mmHg 88%
    01:00 -3°C° 0 mm 4 mps 733 mmHg 88%
    02:00 -3°C° 0 mm 4 mps 733 mmHg 88%
    03:00 -3°C° 0 mm 4 mps 733 mmHg 88%
    04:00 -3°C° 0 mm 4 mps 733 mmHg 89%
    05:00 -3°C° 0 mm 4 mps 733 mmHg 88%
    06:00 -2°C° 0 mm 4 mps 733 mmHg 88%
    07:00 -2°C° 0 mm 4 mps 733 mmHg 88%
    08:00 -2°C° 0.1 mm 4 mps 733 mmHg 87%
    09:00 -1°C° 0.1 mm 4 mps 732 mmHg 86%
    10:00 0°C° 0.1 mm 4 mps 732 mmHg 85%
    11:00 0°C° 0.2 mm 4 mps 732 mmHg 84%
    12:00 0°C° 0.2 mm 4 mps 731 mmHg 84%
    13:00 +1°C° 0.2 mm 4 mps 730 mmHg 83%
    14:00 +1°C° 0.4 mm 4 mps 730 mmHg 84%
    15:00 0°C° 0.4 mm 4 mps 729 mmHg 85%
    16:00 +1°C° 0.4 mm 3 mps 728 mmHg 85%
    17:00 +1°C° 0.4 mm 3 mps 728 mmHg 86%
    18:00 0°C° 0.4 mm 4 mps 727 mmHg 86%
    19:00 0°C° 0.4 mm 4 mps 727 mmHg 86%
    20:00 0°C° 0.3 mm 4 mps 726 mmHg 86%
    21:00 +1°C° 0.3 mm 5 mps 725 mmHg 85%
    22:00 +1°C° 0.3 mm 5 mps 725 mmHg 84%
    23:00 +1°C° 0.8 mm 6 mps 724 mmHg 85%

    22 December, Saturday

    Time Temperature Precipitation Wind Pressure Humidity
    00:00 +2°C° 0.8 mm 7 mps 724 mmHg 85%
    01:00 +1°C° 0.8 mm 8 mps 724 mmHg 86%
    02:00 +2°C° 0.1 mm 7 mps 724 mmHg 86%
    03:00 +3°C° 0.1 mm 7 mps 724 mmHg 87%
    04:00 +3°C° 0.1 mm 7 mps 724 mmHg 87%
    05:00 +3°C° 0.1 mm 7 mps 724 mmHg 88%
    06:00 +3°C° 0.1 mm 7 mps 724 mmHg 88%
    07:00 +3°C° 0.1 mm 6 mps 724 mmHg 88%
    08:00 +3°C° 0.2 mm 6 mps 724 mmHg 88%
    09:00 +3°C° 0.2 mm 6 mps 724 mmHg 89%
    10:00 +3°C° 0.2 mm 6 mps 724 mmHg 89%
    11:00 +3°C° 0.6 mm 6 mps 724 mmHg 90%
    12:00 +3°C° 0.6 mm 6 mps 724 mmHg 90%
    13:00 +3°C° 0.6 mm 5 mps 723 mmHg 91%
    14:00 +3°C° 0.2 mm 6 mps 723 mmHg 89%
    15:00 +3°C° 0.2 mm 6 mps 723 mmHg 88%
    16:00 +3°C° 0.2 mm 6 mps 723 mmHg 87%
    17:00 +3°C° 0.1 mm 6 mps 724 mmHg 85%
    18:00 +3°C° 0.1 mm 7 mps 724 mmHg 83%
    19:00 +3°C° 0.1 mm 7 mps 724 mmHg 81%
    20:00 +3°C° 0.3 mm 7 mps 724 mmHg 82%
    21:00 +3°C° 0.3 mm 7 mps 724 mmHg 83%
    22:00 +3°C° 0.3 mm 7 mps 725 mmHg 84%
    23:00 +2°C° 0.2 mm 8 mps 725 mmHg 83%

    23 December, Sunday

    Time Temperature Precipitation Wind Pressure Humidity
    00:00 +2°C° 0.2 mm 8 mps 726 mmHg 82%
    01:00 +2°C° 0.2 mm 8 mps 726 mmHg 81%
    02:00 +1°C° 0.1 mm 8 mps 727 mmHg 81%
    03:00 +2°C° 0.1 mm 7 mps 727 mmHg 81%
    04:00 0°C° 0.1 mm 7 mps 728 mmHg 81%
    05:00 +1°C° 0.1 mm 6 mps 729 mmHg 84%
    06:00 +1°C° 0.1 mm 5 mps 729 mmHg 86%
    07:00 0°C° 0.1 mm 4 mps 730 mmHg 88%
    08:00 +1°C° 0.1 mm 3 mps 731 mmHg 88%
    09:00 +2°C° 0.1 mm 3 mps 731 mmHg 89%
    10:00 +2°C° 0.1 mm 3 mps 731 mmHg 89%
    11:00 +2°C° 0.2 mm 3 mps 731 mmHg 88%
    12:00 +2°C° 0.2 mm 3 mps 732 mmHg 87%
    13:00 +3°C° 0.2 mm 3 mps 732 mmHg 86%
    14:00 +3°C° 0.2 mm 3 mps 732 mmHg 87%
    15:00 +2°C° 0.2 mm 3 mps 732 mmHg 89%
    16:00 +2°C° 0.2 mm 3 mps 732 mmHg 90%
    17:00 +2°C° 0.2 mm 3 mps 732 mmHg 89%
    18:00 +2°C° 0.2 mm 3 mps 732 mmHg 88%
    19:00 +1°C° 0.2 mm 4 mps 732 mmHg 88%
    20:00 +1°C° 0.1 mm 4 mps 732 mmHg 87%
    21:00 0°C° 0.1 mm 4 mps 733 mmHg 87%
    22:00 0°C° 0.1 mm 4 mps 733 mmHg 87%
    23:00 0°C° 0.1 mm 4 mps 733 mmHg 87%

    24 December, Monday

    Time Temperature Precipitation Wind Pressure Humidity
    00:00 0°C° 0.1 mm 4 mps 733 mmHg 87%
    01:00 0°C° 0.1 mm 4 mps 733 mmHg 87%
    02:00 0°C° 0.1 mm 4 mps 733 mmHg 87%
    03:00 0°C° 0.1 mm 4 mps 733 mmHg 87%
    04:00 0°C° 0.1 mm 4 mps 732 mmHg 88%
    05:00 0°C° 0.1 mm 4 mps 732 mmHg 87%
    06:00 0°C° 0.1 mm 4 mps 732 mmHg 87%
    07:00 0°C° 0.1 mm 4 mps 732 mmHg 87%
    08:00 0°C° 0.6 mm 5 mps 732 mmHg 87%
    09:00 0°C° 0.6 mm 5 mps 732 mmHg 87%
    10:00 +1°C° 0.6 mm 6 mps 732 mmHg 87%
    11:00 +1°C° 0.1 mm 6 mps 733 mmHg 85%
    12:00 +1°C° 0.1 mm 6 mps 733 mmHg 84%
    13:00 +1°C° 0.1 mm 6 mps 733 mmHg 82%
    14:00 +1°C° 0.1 mm 6 mps 734 mmHg 83%
    15:00 0°C° 0.1 mm 5 mps 734 mmHg 83%
    16:00 0°C° 0.1 mm 5 mps 735 mmHg 84%
    17:00 0°C° 0.1 mm 4 mps 735 mmHg 85%
    18:00 -1°C° 0.1 mm 4 mps 736 mmHg 86%
    19:00 0°C° 0.1 mm 3 mps 737 mmHg 88%
    20:00 0°C° 0.1 mm 3 mps 737 mmHg 89%
    21:00 0°C° 0.1 mm 3 mps 737 mmHg 89%
    22:00 0°C° 0.1 mm 3 mps 738 mmHg 90%
    23:00 0°C° 0.1 mm 3 mps 738 mmHg 90%
    Show more